Theta_e
317 320 324 326 326 326 327 327 327 328 329 329 328 328 327 326 324 322 319 318 319 318 318 319 320 319 316 317 318 317 318 321 322 323 323 323 323 324 325 325 326 326 326 327 326 325 326 323 318 317 315 314 315 315 314 319 323 322 328 329 327 329 330 330 324 319 322 324 319 317 319 319 317 316 317 323 332 334 334 340 337 333 332 330 329 331 334 335
315 318 322 325 326 326 326 327 327 327 328 329 328 328 328 326 324 323 321 319 319 318 318 320 320 321 319 317 318 317 319 322 323 324 323 322 323 324 324 324 325 326 326 326 325 325 330 324 315 314 314 315 315 315 317 319 320 329 331 325 328 335 332 328 324 320 318 319 318 318 319 317 318 319 318 322 331 332 334 339 338 341 337 331 331 332 334 333
314 316 320 323 326 326 326 326 327 326 327 329 328 328 328 326 324 323 322 320 320 320 320 320 320 321 321 319 320 318 320 323 324 324 323 322 324 323 323 324 324 325 325 325 325 324 325 320 314 316 317 316 316 316 320 319 319 329 327 322 332 334 329 326 323 320 317 318 318 318 317 316 317 317 317 323 331 329 333 340 339 344 342 336 333 331 332 333
313 315 318 322 325 325 326 326 327 327 326 327 328 328 328 326 325 323 323 322 321 321 321 321 320 321 321 320 321 321 321 323 324 323 322 323 324 323 323 324 323 324 324 324 325 323 321 317 315 318 320 317 317 316 318 320 319 321 320 325 331 325 324 324 320 319 319 318 317 318 317 315 315 314 318 325 328 326 328 334 338 344 341 335 333 331 331 332
311 312 316 320 323 324 325 325 325 327 326 327 328 328 328 326 325 323 323 323 322 321 322 322 321 321 321 320 320 322 321 321 323 321 320 322 323 324 324 323 323 323 324 324 323 323 321 319 320 326 326 319 316 316 317 319 319 318 320 324 325 318 318 321 319 318 318 317 317 317 317 316 314 312 321 325 323 324 324 326 334 338 335 333 333 331 330 331
310 310 313 318 321 324 325 325 325 326 326 326 328 327 328 326 324 323 323 323 323 322 322 322 322 321 322 321 321 322 320 321 323 321 320 320 322 323 323 324 323 323 323 324 323 323 323 323 330 335 330 319 314 315 314 314 315 318 320 321 321 317 315 317 317 316 316 317 317 317 317 315 314 313 318 322 320 319 316 321 334 334 330 332 332 331 331 330
309 308 311 315 320 323 325 325 324 325 326 326 328 327 327 327 324 323 323 324 323 322 322 322 322 322 322 322 323 322 320 321 322 322 323 320 321 322 323 324 323 323 323 322 323 325 327 329 332 330 330 326 317 314 313 312 313 316 319 319 319 317 316 317 315 315 316 317 317 315 316 314 316 315 315 318 320 316 314 320 329 331 329 331 331 331 331 330
308 308 309 313 318 321 323 325 324 323 326 326 327 327 327 327 326 324 323 324 323 323 323 322 323 322 323 324 324 325 323 322 321 324 325 322 322 322 322 324 323 323 323 323 324 324 328 331 328 325 331 328 317 314 313 311 313 315 317 319 317 316 318 315 315 316 314 315 315 314 316 316 315 313 314 319 317 315 320 325 328 330 330 331 332 332 330 330
307 307 308 311 315 318 321 325 324 323 325 327 326 326 327 327 327 326 324 324 324 323 323 323 323 322 323 323 324 326 325 322 321 324 325 323 322 323 323 323 323 323 323 323 323 323 326 330 327 323 328 326 317 315 312 311 316 316 316 318 316 317 317 314 314 316 315 313 313 316 316 314 312 311 315 317 316 321 327 332 333 332 333 333 333 332 329 329
307 306 307 309 312 316 319 324 325 323 323 326 326 326 326 326 326 327 325 325 324 323 323 323 323 323 323 323 324 326 325 322 322 324 325 323 322 323 323 323 324 324 323 322 322 322 325 326 322 318 325 328 319 313 311 312 316 314 314 316 315 316 316 314 314 313 315 313 312 317 314 314 313 311 317 314 317 329 333 333 333 333 334 334 333 331 330 329
307 306 306 308 311 315 320 323 323 323 322 324 326 325 326 326 326 327 327 325 325 324 323 323 323 323 323 323 324 324 322 322 322 323 325 324 324 323 324 324 324 324 323 321 321 322 323 320 315 318 327 328 321 314 310 312 313 311 312 314 314 316 315 314 314 313 314 313 313 317 314 315 313 313 320 314 318 331 337 334 332 333 334 333 333 332 330 329
308 307 306 307 310 313 318 321 323 324 323 324 326 325 325 326 326 327 327 326 325 324 324 323 323 323 323 323 323 321 321 322 322 323 325 325 325 325 325 325 324 325 323 321 319 321 322 317 317 327 327 325 324 317 311 310 311 311 310 313 315 314 315 315 314 314 314 313 314 316 313 314 313 316 318 313 322 332 333 334 333 332 334 332 333 332 330 329
308 308 306 306 308 311 315 319 322 324 324 325 325 325 325 325 326 327 327 326 326 325 324 324 324 323 323 324 322 320 321 322 322 324 325 325 325 325 325 324 324 324 323 321 319 319 321 320 324 329 322 322 324 315 311 311 309 312 311 312 316 314 315 316 314 314 314 313 315 314 314 316 314 317 314 312 325 336 332 334 333 332 333 332 332 332 331 329
309 308 307 306 307 310 314 318 322 324 324 325 325 325 325 325 327 327 327 327 325 325 324 324 324 323 324 323 319 320 321 321 324 325 325 325 324 324 323 323 322 322 323 321 319 319 320 321 323 324 320 321 322 313 312 312 310 313 311 313 316 316 321 319 313 314 314 312 314 311 314 319 316 317 312 311 325 337 337 335 331 332 331 331 332 331 331 330
309 308 308 307 307 309 312 316 321 323 324 325 325 325 325 325 326 327 327 327 325 325 324 324 324 323 325 321 317 320 322 321 325 325 325 325 324 322 320 320 320 320 321 319 318 318 319 321 324 327 323 320 318 314 312 311 312 312 313 318 316 316 324 322 314 315 315 312 312 311 314 318 317 318 312 310 321 334 337 335 330 332 331 330 331 330 331 330
310 309 308 307 307 309 311 314 319 323 324 324 325 325 325 325 325 325 326 326 326 325 324 324 323 323 326 321 317 321 322 321 323 323 324 325 324 321 318 318 316 317 317 316 317 316 316 320 324 325 326 323 320 315 312 312 313 313 315 321 320 315 318 318 314 315 316 313 312 312 314 317 315 315 311 309 319 330 333 333 330 330 330 330 330 329 330 329
310 309 308 307 307 308 311 314 316 320 323 324 325 325 325 325 325 324 325 326 326 323 323 323 321 323 323 317 318 322 321 320 321 321 322 323 323 321 318 317 316 315 315 313 315 315 316 320 322 322 325 327 322 314 312 314 314 314 314 317 320 317 315 316 316 315 315 314 313 313 313 316 315 313 310 308 315 324 328 330 328 327 326 326 326 327 328 328
309 308 307 307 306 307 311 315 316 319 323 323 324 324 324 325 325 325 323 323 322 321 322 321 321 327 323 315 318 322 320 319 319 319 319 320 321 320 318 316 315 315 315 315 316 318 320 321 323 325 325 325 323 316 314 316 317 316 316 316 318 316 314 316 316 314 314 313 314 313 312 314 316 314 311 308 310 317 322 322 321 321 321 321 321 323 325 326
308 307 306 306 306 306 310 315 317 320 323 324 324 324 324 324 324 322 320 320 321 322 323 322 322 326 323 317 317 320 319 318 318 317 316 317 317 317 316 315 315 316 318 321 320 320 321 322 324 328 327 325 324 319 313 314 316 317 318 319 320 317 315 317 318 316 314 313 314 314 313 314 314 314 313 309 308 311 314 313 312 314 315 315 316 317 319 323
308 307 305 305 306 306 309 314 316 320 323 324 324 324 324 324 323 319 317 321 321 320 323 322 321 319 317 316 316 318 320 319 319 318 315 315 315 315 315 315 316 318 321 323 322 320 322 325 326 328 327 324 321 316 311 311 311 312 315 318 319 318 316 318 319 316 314 314 314 313 313 314 314 315 313 310 309 310 311 310 310 311 311 313 314 314 316 320
307 306 306 306 306 306 308 313 316 319 324 324 323 323 322 324 324 320 320 321 316 315 321 319 315 315 314 315 316 318 319 318 319 319 315 314 314 315 315 315 317 320 321 320 320 320 322 326 327 326 324 320 317 313 309 310 310 310 313 316 317 317 316 315 315 315 314 313 314 314 312 313 314 313 311 309 311 311 310 310 311 311 310 310 312 314 314 315
306 306 307 307 307 306 307 313 316 319 323 323 322 321 320 320 321 319 321 322 315 314 318 315 312 314 313 314 317 319 319 319 320 319 315 313 313 314 314 314 317 318 318 318 320 321 323 326 326 322 317 314 312 310 308 309 310 311 312 314 316 317 316 314 313 315 314 312 317 317 313 314 315 313 311 311 311 311 310 310 311 311 311 309 309 312 313 314
306 306 307 308 308 308 307 312 317 319 321 321 321 321 319 318 318 318 320 321 317 314 314 312 313 314 313 314 316 318 320 320 320 319 316 313 312 313 313 314 317 316 315 319 322 323 324 324 322 317 312 311 310 308 308 309 309 311 313 314 316 316 315 315 313 314 314 312 315 317 315 316 316 314 314 313 311 311 311 312 311 311 312 310 309 309 311 314
307 306 307 308 309 310 307 311 317 319 321 320 320 320 319 317 318 318 317 317 317 314 312 311 312 313 313 313 313 317 320 320 319 319 316 313 312 312 313 314 316 315 316 318 320 322 322 320 317 315 311 310 311 310 308 308 309 311 313 315 317 318 317 316 315 314 314 311 313 316 317 319 319 316 316 315 311 311 312 312 312 312 311 311 310 310 311 313
307 306 306 307 310 311 308 313 319 320 320 320 319 319 318 318 318 316 315 317 317 314 312 312 312 312 312 312 313 317 319 317 317 317 314 312 312 312 312 313 315 316 316 317 319 321 320 316 314 315 313 311 311 311 310 309 310 311 314 314 316 318 317 317 316 315 314 315 315 313 314 324 329 320 315 314 312 312 312 312 313 312 311 311 311 310 311 312
306 306 306 307 311 312 312 317 320 320 320 319 320 318 317 317 316 315 317 319 318 314 314 315 314 313 312 312 313 318 319 315 313 314 313 311 311 312 314 313 313 316 315 315 318 318 317 315 313 314 315 314 313 312 310 310 310 311 315 314 314 316 317 318 317 316 320 320 315 311 315 326 328 321 316 314 313 313 312 312 313 312 311 311 310 310 311 312
306 306 307 308 311 313 316 320 320 319 320 320 319 317 317 316 314 315 321 323 320 316 315 314 312 313 313 311 312 318 321 315 312 312 311 311 310 311 314 314 313 315 313 315 320 318 315 316 315 315 316 317 317 313 311 309 309 313 318 316 313 314 318 319 317 320 324 318 313 313 317 319 319 317 316 313 313 314 312 312 312 311 311 311 309 310 311 313
306 306 307 309 312 314 316 319 319 319 320 320 318 316 317 315 314 317 323 325 321 315 314 312 310 312 313 311 313 317 317 315 316 314 310 311 311 309 313 313 313 314 312 316 322 318 314 317 316 315 316 317 316 314 312 309 309 315 320 317 313 314 318 319 317 321 320 315 316 318 315 316 321 323 318 311 312 315 315 314 313 311 311 311 310 310 312 314
306 307 308 309 313 313 314 318 319 319 319 317 317 317 315 315 316 318 321 323 317 313 314 312 310 313 313 311 313 315 314 314 318 315 310 310 310 309 312 312 312 313 312 315 319 315 312 316 316 314 316 315 313 313 313 310 310 314 317 317 318 319 319 317 318 320 316 314 319 319 314 314 322 327 320 312 311 314 317 316 313 311 310 311 311 312 312 316
306 307 309 311 314 316 317 318 319 319 318 316 316 315 314 315 318 319 321 320 315 313 313 311 312 314 313 312 314 314 315 315 315 313 311 312 310 310 311 311 311 313 312 313 316 315 312 313 314 314 316 315 312 314 315 312 312 314 318 319 319 323 324 322 326 324 315 316 320 320 317 312 317 325 319 313 314 315 315 315 314 312 311 311 311 312 314 319
307 309 310 313 315 317 318 317 317 317 316 315 315 314 315 316 318 321 321 317 314 314 312 311 313 313 312 313 314 314 315 315 313 313 313 312 311 311 310 312 312 313 314 314 315 315 312 314 315 315 317 316 312 314 315 315 314 314 322 322 318 324 324 321 325 321 315 320 320 317 316 311 315 322 319 315 316 314 313 314 316 315 313 312 311 312 316 321
309 311 312 314 316 317 318 316 315 315 315 315 314 315 318 318 318 321 318 315 315 314 312 313 314 312 313 314 314 315 315 315 315 314 313 312 312 311 311 313 313 314 316 314 315 315 314 318 318 315 316 315 314 315 315 316 314 313 319 319 316 321 318 318 322 317 317 319 313 311 314 312 314 317 316 316 315 314 313 312 313 313 313 314 312 314 318 321
311 313 314 316 317 317 318 315 314 314 314 314 315 317 320 320 320 318 314 314 316 314 312 314 314 313 313 313 314 315 315 315 316 315 313 312 313 312 312 313 313 316 317 315 316 316 316 319 318 315 314 313 315 316 315 317 314 313 315 315 318 320 316 317 319 316 318 318 311 309 313 315 316 316 316 316 315 314 311 309 310 310 311 312 312 315 319 318
313 315 316 317 317 317 316 313 313 313 313 314 316 318 319 321 320 316 312 313 313 312 312 313 313 313 313 314 314 314 315 315 315 315 314 313 313 312 312 313 312 316 318 316 316 316 318 319 316 316 315 313 313 313 316 319 315 314 316 316 321 325 322 320 319 321 323 319 313 310 314 321 321 316 316 314 313 314 313 314 314 314 314 313 312 316 319 318
316 316 317 317 316 316 314 312 312 313 314 316 318 318 319 322 319 314 312 312 311 312 313 313 313 313 314 315 314 314 316 315 314 315 315 313 313 313 312 311 311 315 316 316 316 315 317 318 315 315 314 312 314 314 316 318 316 316 317 317 318 322 327 323 317 323 326 320 316 312 316 325 319 312 313 312 313 315 317 319 318 321 320 316 317 319 317 317
317 317 317 316 314 314 313 312 313 313 315 318 319 318 319 320 318 315 312 311 311 312 313 314 314 313 315 315 314 314 316 315 315 315 315 314 313 313 312 311 310 312 315 316 317 316 317 317 315 314 312 312 315 316 316 316 316 315 314 317 316 316 325 322 313 316 319 317 318 314 315 322 316 312 317 316 315 316 317 320 322 323 322 321 323 320 316 318
316 316 315 313 313 313 312 313 313 314 316 318 319 319 319 317 315 314 312 311 312 312 314 315 315 314 315 314 314 314 315 315 315 316 316 315 313 312 312 311 311 311 313 315 316 316 318 317 315 315 313 312 313 315 315 314 314 315 315 317 314 312 320 323 316 319 318 316 322 317 313 318 316 315 320 316 314 317 317 320 322 322 323 325 324 318 316 316
314 314 313 312 313 313 313 313 313 315 317 318 318 318 318 315 312 312 311 311 312 313 314 316 315 314 314 315 314 313 314 315 314 315 316 314 315 314 311 311 311 311 313 314 316 317 318 319 315 313 315 314 313 314 315 313 310 313 316 314 314 316 318 317 315 320 317 314 323 320 312 315 316 319 322 314 313 319 315 316 320 322 324 324 321 318 317 315
313 314 314 313 312 312 312 313 314 316 318 318 318 317 317 314 311 311 311 310 312 314 315 315 315 314 314 315 314 313 314 315 314 315 316 315 316 314 311 311 311 311 312 313 316 316 318 322 319 313 314 316 316 315 316 315 311 311 311 310 314 319 319 316 316 319 317 316 322 319 313 317 320 319 321 316 316 317 313 316 322 324 324 320 316 318 317 315
314 316 315 313 312 312 313 313 315 317 317 318 318 316 314 312 310 310 311 312 312 313 314 315 314 314 314 314 314 313 314 314 314 314 315 314 314 312 311 311 311 311 311 312 315 315 315 321 320 316 314 314 315 316 318 318 315 313 313 311 313 313 315 318 317 317 320 321 323 317 315 325 326 317 317 316 315 315 312 316 320 319 319 317 314 316 315 313
315 316 314 313 312 312 313 314 315 316 317 317 316 313 312 311 310 310 312 312 312 313 313 314 314 314 314 314 314 313 313 314 313 314 314 313 312 312 311 311 310 310 311 311 314 315 314 318 321 317 315 316 316 314 315 316 316 316 315 315 316 315 318 319 315 315 317 317 320 318 317 328 328 314 312 312 312 314 312 314 315 314 316 317 314 314 313 313
316 316 314 312 312 312 313 313 314 315 316 315 314 313 312 311 310 310 312 312 313 315 313 312 312 312 313 314 314 313 313 314 313 313 314 312 312 313 312 311 310 309 311 312 312 316 318 322 324 319 317 318 316 312 310 312 315 315 313 314 316 316 320 320 316 318 316 310 314 316 313 323 327 316 311 311 312 314 312 311 313 310 311 315 314 313 311 311
316 314 312 312 312 312 313 313 313 314 314 313 313 313 313 311 309 311 312 312 314 316 314 312 311 312 312 313 313 313 312 313 313 313 313 312 311 314 314 311 309 309 311 312 312 315 317 319 322 320 319 320 319 316 312 311 314 315 315 315 314 315 319 323 322 322 318 313 314 313 312 322 330 320 314 314 313 314 313 311 312 310 309 311 313 313 312 311
313 312 312 312 311 312 315 314 313 313 313 312 312 313 312 311 310 311 312 312 313 313 313 312 311 312 312 312 313 313 312 313 313 312 313 313 311 315 315 309 310 311 310 312 314 314 314 316 319 320 320 320 322 321 316 313 314 317 318 315 314 317 318 318 316 313 315 319 317 313 316 324 327 321 317 316 313 313 314 312 311 311 310 311 312 312 312 310
312 313 314 313 312 314 315 315 314 314 313 312 312 313 313 311 310 311 312 313 314 314 313 313 313 312 312 312 312 312 312 314 313 312 314 314 311 313 313 310 310 310 310 314 314 312 317 320 317 318 319 319 320 319 318 318 316 316 318 315 314 316 314 315 316 312 314 319 314 314 321 324 323 319 315 315 314 314 315 314 311 310 309 310 312 312 311 310
314 314 314 313 313 313 313 313 314 314 313 312 313 313 313 310 310 311 312 313 315 315 315 315 314 313 312 312 313 313 312 314 314 313 312 314 314 313 312 310 310 311 315 318 315 314 322 322 315 315 317 317 319 319 318 320 318 315 317 317 317 314 312 317 320 316 319 320 315 319 323 318 318 317 315 318 320 318 318 319 317 313 310 310 311 310 309 308
315 314 313 314 314 314 313 313 314 313 313 313 313 313 312 311 310 310 311 313 315 315 314 313 313 313 312 312 313 313 313 314 315 313 312 314 316 314 312 310 310 314 320 318 314 316 321 319 315 315 315 316 320 320 318 318 316 315 316 318 320 317 314 317 317 316 322 320 315 322 323 314 313 317 318 321 322 320 319 318 318 315 312 312 312 310 310 309
313 313 313 313 314 314 314 314 314 313 313 313 313 313 312 312 311 310 311 313 314 313 313 313 313 313 313 312 313 313 313 314 314 313 312 314 315 313 312 310 310 316 320 315 312 315 316 315 315 315 315 317 318 316 316 317 315 315 316 316 318 319 317 317 316 315 319 316 312 318 321 315 312 315 319 319 318 317 313 310 311 314 315 315 314 313 312 311
312 313 312 313 314 314 314 314 314 313 312 313 315 314 313 312 311 312 315 315 313 312 313 313 313 313 313 313 313 313 313 314 314 312 312 314 314 313 312 311 311 314 315 313 313 315 314 316 317 315 313 316 318 316 315 316 315 315 316 315 315 317 317 316 315 314 315 315 313 314 316 315 312 314 318 318 314 311 310 311 315 317 318 318 317 317 316 312
314 314 313 314 315 314 314 313 313 313 312 312 314 314 313 312 311 313 317 315 312 311 313 313 312 312 312 313 313 313 313 313 314 313 312 313 314 312 312 313 313 312 311 312 312 311 313 316 315 314 314 314 318 319 316 316 316 315 315 315 314 315 316 315 315 314 314 314 313 313 315 315 313 314 316 314 311 308 310 317 320 317 317 318 319 318 314 312
306 307 309 314 314 313 314 313 312 313 312 312 313 314 313 312 311 314 316 316 314 313 313 313 313 312 312 313 314 313 312 313 313 312 312 312 313 313 314 314 313 312 312 313 313 312 315 315 312 313 316 313 315 318 317 314 313 314 315 316 314 314 314 314 314 314 314 314 314 314 314 312 313 318 317 313 312 310 311 317 319 316 316 318 321 321 317 313
303 305 310 315 314 312 313 312 312 313 312 312 313 314 314 313 313 314 315 317 319 318 315 314 312 312 312 313 313 313 314 315 315 314 314 313 314 318 319 315 312 312 312 314 317 318 318 317 315 316 317 314 312 316 317 314 313 314 315 315 313 313 313 313 314 314 313 313 314 314 312 312 316 319 316 314 315 314 314 316 315 315 316 316 319 321 317 312
Wind_Speed
24 23 21 26 30 33 37 39 42 44 42 42 43 44 43 43 43 43 43 40 36 36 34 31 29 28 29 26 23 22 18 13 13 12 10 11 14 12 10 10 8 7 6 1 2 5 8 11 15 19 18 10 5 5 6 4 2 3 2 3 2 3 4 5 7 7 5 5 6 7 7 9 6 3 1 3 5 3 2 3 3 3 3 4 4 13 28 27
22 22 20 22 28 31 35 37 38 40 41 42 43 43 43 43 43 43 42 41 37 35 34 31 28 27 28 27 23 22 17 11 10 11 14 14 13 14 11 10 8 5 6 4 7 9 9 7 10 13 9 5 4 5 5 3 2 3 2 2 3 5 5 6 7 6 4 5 7 7 6 8 9 7 4 3 2 1 3 2 4 4 3 2 7 20 28 27
21 23 21 19 24 27 30 34 36 40 41 42 44 44 45 44 43 43 42 41 38 36 35 32 29 26 26 25 21 21 16 7 6 9 17 16 13 15 12 10 9 6 5 6 7 11 11 9 11 10 4 4 3 3 4 3 2 1 3 1 5 6 5 5 6 7 5 4 8 7 4 5 6 6 4 5 5 4 6 5 1 3 3 5 11 21 25 25
20 23 23 18 20 25 27 31 34 39 41 42 45 45 44 44 44 44 42 41 38 36 35 32 31 27 25 25 21 20 13 2 4 10 19 19 16 17 16 14 12 9 6 7 8 12 14 13 14 9 4 3 3 3 3 2 1 1 3 4 5 3 3 6 7 7 5 6 7 6 4 4 5 4 4 8 7 5 7 7 7 8 9 10 11 18 22 23
16 20 24 21 20 24 26 28 31 36 41 41 44 45 44 45 45 45 42 41 39 37 36 33 31 28 26 26 22 20 13 1 5 13 21 22 19 19 17 16 14 12 9 8 8 12 13 11 10 6 4 2 4 4 3 3 2 1 3 5 4 4 3 6 5 6 5 6 6 6 7 6 4 2 5 11 9 6 7 8 8 8 12 16 15 18 19 19
13 16 21 23 21 23 26 28 28 33 40 41 45 46 44 45 45 45 43 41 40 38 36 34 32 29 26 24 24 22 13 4 2 12 23 24 22 20 18 17 15 13 10 8 8 9 9 8 6 4 3 1 3 4 4 4 2 2 4 3 3 3 4 4 1 4 5 8 9 8 6 6 6 2 6 11 10 6 5 7 8 8 13 20 21 19 17 16
12 13 17 23 24 23 25 29 29 31 37 39 43 46 45 45 46 45 44 42 40 39 37 35 33 31 27 26 25 17 11 6 2 11 24 25 25 22 20 19 16 15 12 9 9 6 5 6 4 4 3 1 2 4 5 6 3 2 5 5 4 4 5 3 2 3 5 8 9 6 5 8 8 5 3 7 9 5 5 4 10 10 13 17 18 16 17 18
13 13 15 20 25 26 26 29 29 29 35 37 40 46 46 44 46 46 45 43 41 41 38 37 35 33 32 29 19 7 7 5 1 14 25 24 25 24 22 20 17 17 14 11 9 7 5 4 4 4 3 2 1 4 5 7 4 3 5 5 3 3 4 5 2 2 4 4 4 7 6 7 6 4 4 8 10 5 2 6 11 11 11 12 13 14 15 16
14 14 16 18 23 27 27 28 29 28 33 38 40 44 46 45 46 46 46 44 43 42 40 39 37 35 35 26 12 4 9 9 4 14 24 24 26 25 24 20 18 18 15 14 12 11 6 1 2 3 3 3 2 6 5 5 3 4 5 4 4 5 5 5 2 3 4 2 5 8 5 3 2 2 3 9 7 1 3 8 10 11 11 10 11 13 15 15
14 14 16 18 21 25 25 26 29 29 31 37 41 43 45 46 45 45 46 45 44 43 42 41 39 38 33 21 9 6 9 12 9 13 22 24 25 25 23 21 20 20 17 16 16 14 8 4 5 5 4 2 1 4 3 1 3 6 5 4 6 5 4 3 2 2 2 1 4 8 5 2 3 1 4 7 4 5 7 8 8 11 11 12 10 11 15 16
13 14 16 18 19 23 26 27 29 31 32 36 42 44 43 45 44 43 45 45 44 44 43 42 41 39 30 17 10 7 8 14 13 14 20 22 23 23 22 21 21 21 19 16 15 15 13 15 14 8 3 2 1 5 4 1 4 10 7 6 6 4 4 1 0 2 2 1 3 7 4 3 3 0 6 5 4 7 9 9 9 11 11 11 11 10 12 16
12 12 15 18 19 22 26 29 31 32 32 36 42 44 42 44 43 42 44 46 45 44 44 44 43 38 26 12 8 7 9 15 15 16 20 20 22 21 19 18 17 18 20 16 13 15 20 22 17 7 1 2 2 3 3 2 6 9 5 5 7 6 5 4 2 2 1 2 4 7 3 3 3 6 8 3 5 6 8 10 9 10 9 9 10 8 9 14
12 11 13 17 19 20 24 28 30 31 34 37 41 42 41 41 41 42 44 46 47 46 45 44 42 37 22 6 5 9 12 16 18 19 22 22 20 18 16 17 14 13 17 18 17 18 21 21 16 8 4 4 0 3 5 6 5 7 4 3 4 4 5 5 3 1 2 3 3 5 2 5 8 10 7 2 6 8 7 8 9 8 7 8 8 7 8 11
15 13 13 16 18 20 23 26 29 32 35 36 39 41 40 42 44 43 44 46 47 47 45 45 41 31 16 4 3 11 16 19 21 23 25 24 20 17 16 15 13 11 12 18 21 19 18 18 15 8 3 3 1 5 9 6 2 5 4 3 1 1 5 6 0 4 4 2 3 5 4 6 8 10 6 4 7 9 9 8 8 7 6 7 7 8 8 10
18 17 14 15 17 20 24 27 30 34 36 35 38 40 38 41 44 43 46 48 47 47 47 44 37 23 8 1 4 14 20 20 23 27 25 24 22 16 14 16 14 13 13 18 21 18 18 16 12 5 2 3 3 5 7 5 2 3 4 3 1 3 5 7 1 7 7 1 3 6 4 6 8 9 6 5 7 8 9 8 8 7 7 7 6 8 7 8
20 20 18 16 17 20 25 29 31 35 38 36 37 39 37 39 43 42 45 47 46 49 46 34 29 20 6 2 9 16 16 15 21 25 24 25 24 19 19 20 17 17 17 17 19 18 14 10 5 2 2 4 3 2 5 5 4 2 3 4 2 4 3 4 3 4 5 2 1 3 3 4 6 6 4 5 9 8 8 8 8 8 8 8 6 7 7 7
21 22 22 19 18 19 25 30 31 36 40 39 38 39 38 37 40 40 43 47 46 47 39 26 26 18 4 4 11 14 11 13 21 24 23 21 22 27 24 16 14 17 18 15 15 11 6 2 2 1 2 4 4 1 4 5 4 3 1 3 3 3 3 2 4 4 2 3 4 4 3 5 6 5 4 4 8 8 8 9 9 9 8 7 7 7 7 7
22 24 23 22 22 21 24 29 31 36 42 41 38 38 39 39 41 41 41 42 37 32 23 18 22 12 2 6 9 12 15 20 24 23 21 18 21 28 22 13 13 16 13 8 5 3 1 1 1 3 2 3 5 6 7 6 4 3 2 3 3 3 3 4 4 3 4 3 5 6 5 10 10 6 4 4 6 8 10 9 8 8 8 7 7 7 8 8
24 26 25 25 25 24 24 29 31 36 43 42 39 41 39 37 35 34 36 37 24 12 8 12 15 5 3 10 9 14 23 28 25 19 21 22 22 23 19 17 14 11 8 3 2 3 2 3 2 4 7 9 10 11 9 5 4 4 4 5 4 4 4 5 4 5 4 5 6 7 7 11 11 7 5 4 4 6 8 6 5 6 6 6 6 7 8 8
25 27 27 26 28 27 24 30 32 36 42 41 42 35 24 21 14 10 17 24 12 0 5 13 11 4 7 12 14 20 25 24 18 13 20 26 25 21 13 12 8 4 6 6 6 4 3 5 6 10 11 12 13 9 7 8 8 8 5 4 6 6 5 5 4 6 1 5 7 8 8 10 10 8 6 4 4 6 8 7 7 7 6 7 8 9 10 10
28 28 28 27 29 29 27 31 35 38 43 44 41 19 7 13 8 7 10 8 2 4 9 14 7 5 7 14 22 27 18 10 9 11 21 26 24 18 7 7 7 3 3 5 6 3 3 9 14 14 10 9 11 6 6 9 9 8 6 4 6 6 5 4 3 4 3 3 6 4 5 10 10 9 5 3 5 8 10 9 9 10 9 8 9 11 11 9
29 29 30 28 29 31 29 32 37 42 45 44 34 11 7 13 8 18 20 7 4 3 10 12 8 7 10 17 28 29 15 7 9 10 18 22 15 10 7 8 9 6 5 7 6 4 5 12 12 9 8 7 8 6 8 10 9 8 5 4 6 4 3 3 2 4 3 2 4 1 4 9 11 8 4 5 7 8 9 10 11 11 10 9 10 11 10 9
30 31 31 29 30 32 31 33 39 41 43 40 28 15 13 12 12 26 21 8 3 4 6 7 7 8 11 13 20 24 16 11 13 11 16 18 8 7 11 9 9 8 9 10 9 8 7 7 4 8 7 7 7 6 7 7 7 7 4 4 4 3 3 2 3 2 3 1 1 2 3 7 8 6 5 8 8 6 6 8 9 8 10 10 10 9 9 10
31 33 33 31 31 32 32 35 38 38 43 41 33 26 20 18 27 33 18 7 4 3 3 6 7 7 8 7 9 13 12 9 10 14 19 17 8 8 10 9 11 9 9 10 10 10 6 1 7 9 7 8 7 6 7 6 6 6 5 6 4 3 5 3 2 1 2 2 2 4 2 6 6 5 8 7 5 5 6 7 9 8 9 8 7 7 8 10
33 35 35 34 31 34 35 34 37 40 40 35 32 27 23 28 34 31 17 5 3 2 1 4 5 4 7 8 6 6 7 4 3 13 21 18 13 10 7 6 8 9 10 9 7 7 2 3 9 11 8 6 6 8 8 7 6 6 6 8 7 6 6 3 4 5 2 3 3 2 1 6 5 5 9 6 2 5 5 6 11 10 8 7 8 9 9 9
35 37 36 35 34 37 32 23 36 43 28 23 33 28 27 37 32 21 12 4 2 1 4 6 4 8 10 7 6 7 7 2 2 13 19 15 11 9 7 5 2 6 11 7 3 3 2 2 8 11 9 8 7 9 9 8 6 6 5 8 9 7 5 5 7 6 4 5 3 1 5 6 6 5 9 4 3 8 6 6 11 10 7 8 9 10 8 8
37 37 36 37 36 38 26 15 33 37 16 20 38 32 33 39 23 8 6 2 4 4 4 3 1 10 12 6 8 10 6 5 7 11 12 10 9 8 8 7 2 4 7 5 2 2 6 7 5 8 10 9 8 10 10 9 7 6 4 7 9 7 7 7 8 6 3 3 2 2 3 4 5 6 6 2 2 8 8 9 11 9 10 11 10 10 9 10
39 39 38 38 39 44 36 23 31 29 20 33 41 34 38 36 14 2 5 5 5 4 4 3 3 10 9 4 7 4 6 13 11 8 8 7 8 6 6 7 6 8 8 7 4 2 8 12 8 9 10 8 10 10 8 8 7 7 3 5 6 6 7 7 7 4 0 1 3 3 3 3 6 6 4 2 2 7 8 11 13 12 13 12 10 10 10 9
42 40 38 40 43 50 46 32 31 29 31 44 44 38 38 26 7 4 2 4 3 4 5 5 7 9 6 6 5 2 8 11 6 7 7 4 3 3 5 7 8 11 9 5 3 1 5 9 9 10 9 8 9 8 7 9 7 4 4 5 4 3 3 3 5 4 3 2 7 7 6 4 5 6 3 1 2 7 8 9 10 11 12 10 9 10 9 8
44 41 40 44 43 48 44 29 28 33 39 48 46 41 33 14 5 4 4 4 3 3 5 4 7 10 12 10 3 3 11 7 3 10 7 1 3 3 4 7 8 9 7 3 3 2 1 2 5 7 6 5 5 5 6 8 6 4 5 5 5 4 4 3 2 4 2 5 8 7 7 5 5 5 4 4 5 7 8 8 8 8 9 9 10 10 8 7
45 41 43 48 46 48 35 15 23 38 46 53 48 36 22 6 1 4 5 5 5 4 6 5 7 12 17 15 6 7 12 7 8 13 8 3 5 5 5 7 6 5 5 5 5 4 3 3 3 3 3 4 3 4 2 1 3 4 4 4 3 3 3 3 3 2 4 8 6 3 3 4 5 5 4 6 6 6 8 8 9 8 8 8 8 8 7 7
44 42 48 53 51 49 32 18 36 49 51 55 42 20 10 5 2 2 5 6 5 6 9 11 13 15 18 15 9 8 9 9 12 14 13 9 6 8 8 7 7 6 5 8 6 3 2 2 3 1 2 5 5 3 0 2 2 4 3 5 4 1 1 2 2 2 5 6 3 1 2 3 6 7 7 8 9 8 8 8 8 7 8 8 7 7 6 5
43 46 53 56 51 45 37 35 49 55 53 49 28 8 6 7 4 3 7 7 6 9 11 14 18 19 19 14 8 7 7 9 14 14 12 11 7 7 5 5 9 6 4 8 7 3 1 4 3 4 3 5 7 7 4 2 5 7 5 7 7 3 4 6 4 1 4 4 2 1 1 3 4 5 9 12 11 7 7 7 7 7 8 8 7 6 5 5
46 53 55 55 50 42 40 45 53 57 51 34 15 7 8 8 4 5 9 6 5 9 10 12 18 19 15 10 6 7 6 6 12 14 12 10 7 7 6 7 12 6 4 7 6 6 6 3 6 9 5 6 9 8 5 4 6 6 3 4 6 5 5 6 4 3 4 2 2 2 1 4 4 4 8 10 8 5 4 6 6 6 7 7 5 5 5 6
53 57 54 48 42 37 43 53 56 55 41 19 10 11 9 6 4 6 9 7 8 10 10 13 18 17 10 5 3 3 2 3 9 11 11 11 10 11 9 9 13 9 6 7 5 5 8 5 2 4 3 7 8 4 2 5 5 4 1 3 5 5 5 3 3 5 4 1 1 2 3 4 4 6 6 4 6 6 4 5 4 6 6 3 4 5 6 6
53 50 44 36 33 40 51 57 56 50 30 12 11 11 8 5 5 8 10 12 14 16 18 15 12 13 8 4 3 3 2 3 9 8 7 10 9 11 10 7 10 11 8 7 4 4 7 3 1 3 2 3 7 5 3 3 4 2 3 5 5 3 7 5 2 0 3 2 3 2 3 5 3 6 6 4 6 7 6 5 4 5 4 3 5 6 5 6
43 35 26 21 32 48 57 58 55 42 21 10 12 10 5 3 3 7 10 13 18 21 22 16 10 13 12 7 7 7 3 6 9 8 6 7 7 9 12 8 10 14 11 7 2 2 5 1 1 4 4 3 3 5 2 2 3 4 4 6 3 2 4 4 2 2 3 3 4 0 3 4 1 3 5 5 5 9 9 7 5 5 4 6 6 6 6 6
32 24 13 16 39 53 57 61 50 28 12 9 12 7 2 2 2 7 11 14 18 19 16 12 10 14 16 15 13 13 12 11 10 9 8 8 6 10 16 10 8 13 12 8 4 2 5 3 3 2 5 3 2 4 2 2 3 4 4 3 3 3 3 1 3 2 1 3 4 3 3 3 4 5 4 3 7 10 9 6 5 7 7 7 6 6 6 5
26 15 5 21 47 53 55 56 35 14 9 10 10 6 2 2 3 9 15 17 18 17 13 11 10 11 13 16 17 17 16 15 14 10 9 9 6 10 18 12 7 12 12 9 6 3 4 4 1 2 2 2 2 2 5 4 3 2 1 1 1 3 5 3 3 3 4 4 3 3 3 3 5 6 5 7 10 11 8 5 7 10 9 8 7 7 7 6
17 7 5 28 49 52 52 42 19 8 10 10 9 5 3 3 4 11 18 19 15 10 10 14 13 12 14 14 14 15 12 13 17 12 8 11 6 6 15 14 9 12 13 11 8 5 4 3 2 2 2 2 3 3 6 6 4 2 2 4 3 0 1 2 1 3 4 3 3 2 2 5 7 5 8 12 12 9 8 7 8 9 8 8 7 7 7 6
11 5 6 33 52 51 41 21 8 9 9 8 8 4 3 4 6 13 18 17 11 3 3 11 12 12 15 15 14 12 9 10 14 10 5 9 9 5 11 15 12 11 11 10 8 6 3 4 4 2 1 4 3 1 3 5 4 3 3 4 4 2 3 3 4 1 2 2 4 4 2 7 6 4 9 12 8 4 5 7 7 7 7 8 7 7 7 6
10 5 8 37 55 48 27 7 5 8 4 6 7 3 4 6 9 14 16 15 10 3 4 6 8 8 10 15 17 15 11 10 13 12 6 10 14 8 8 14 15 13 12 8 7 5 3 4 4 2 3 4 3 2 4 4 3 2 3 3 3 3 4 5 6 3 1 1 2 3 2 7 6 4 6 7 4 2 3 5 6 7 7 7 7 7 6 6
8 7 14 41 55 42 19 4 6 5 2 5 4 1 2 5 10 13 14 14 9 5 6 6 8 8 7 10 14 14 12 9 11 13 7 6 10 7 9 15 17 15 12 7 6 5 3 4 4 1 2 3 3 1 2 3 2 2 4 3 3 3 2 4 5 4 3 3 2 1 4 7 6 3 3 5 5 5 5 5 6 7 5 5 7 6 6 6
7 6 10 33 46 35 15 7 9 5 4 7 4 1 1 3 10 14 15 15 8 6 10 9 10 11 9 12 14 16 14 7 8 11 5 5 6 5 11 18 18 16 12 9 9 7 3 4 5 3 1 2 2 2 2 4 4 3 2 1 2 2 4 3 2 3 2 4 5 5 6 6 6 4 3 4 5 6 7 6 6 7 5 5 5 5 6 6
9 5 5 17 25 18 7 6 12 10 10 12 8 5 3 3 9 15 16 12 3 5 9 7 8 9 10 14 14 14 13 6 6 8 2 4 5 2 10 20 20 17 12 10 12 8 5 5 5 7 7 8 8 6 6 6 3 1 0 0 2 4 5 3 2 3 3 4 4 6 5 6 7 6 5 6 5 6 7 5 4 6 5 4 5 5 6 6
9 4 5 8 7 6 1 1 9 11 13 15 10 5 6 6 7 9 12 9 2 4 6 4 7 8 8 15 13 13 12 2 3 8 6 8 6 1 8 17 19 15 11 14 15 8 4 4 6 10 11 10 8 4 4 7 4 4 3 1 4 4 3 3 2 3 5 3 3 5 5 5 7 7 7 7 6 6 7 6 4 5 4 4 4 4 4 5
6 6 8 7 4 5 3 3 7 9 12 15 9 6 9 10 8 6 6 5 4 6 6 3 8 10 12 16 13 12 12 3 4 11 12 9 5 2 4 9 12 13 13 14 13 8 4 5 10 13 12 8 6 4 7 10 7 10 8 6 7 6 5 5 5 7 5 4 6 7 6 6 9 9 9 9 6 6 6 6 6 5 4 3 3 4 4 5
3 5 8 8 6 6 5 7 11 9 12 13 6 5 9 11 13 12 6 2 5 8 6 4 11 17 19 20 15 12 11 5 5 11 11 7 5 5 5 3 6 10 13 11 9 7 6 8 9 11 9 7 7 7 11 12 10 11 12 12 10 8 9 10 11 11 7 6 11 9 9 11 10 8 9 9 7 5 5 5 4 3 4 4 5 5 6 7
3 4 2 2 5 10 11 14 17 15 15 13 5 5 11 13 16 12 4 4 6 9 9 10 16 20 22 21 15 13 14 11 9 11 11 12 11 10 8 5 4 6 10 11 7 4 5 7 7 9 7 6 5 6 9 11 11 11 14 16 15 12 13 14 15 16 13 13 13 6 7 12 9 7 9 7 4 4 4 3 1 3 4 5 6 7 8 9
5 6 4 3 3 7 10 12 16 16 14 12 8 7 10 15 17 10 3 6 11 11 11 16 20 20 21 21 17 16 21 22 18 17 16 16 14 11 10 8 5 5 7 9 6 1 2 4 5 8 7 3 1 1 6 9 8 9 12 16 18 18 18 18 17 14 11 13 11 5 7 11 7 7 9 6 2 2 3 4 4 4 5 6 7 7 8 9
3 2 5 7 6 7 9 9 12 13 11 11 8 6 9 15 16 11 3 2 9 10 9 15 19 16 15 18 19 19 22 21 18 17 17 16 13 10 6 5 9 10 6 6 5 3 3 2 2 6 6 4 1 2 5 5 3 5 10 13 17 18 18 16 14 11 11 12 11 8 10 10 6 5 7 7 4 4 5 7 7 5 5 7 8 9 10 11
2 3 3 6 8 9 11 10 11 12 10 9 6 3 7 12 12 12 7 1 1 6 7 12 16 12 11 17 18 15 13 10 9 9 9 9 7 5 5 6 12 14 9 5 3 3 6 5 3 5 6 3 0 4 6 5 2 8 11 13 15 13 11 10 9 12 14 12 10 11 11 9 6 6 7 7 5 7 9 9 7 6 6 7 9 10 11 12
Wind_Direction
233 233 219 216 216 215 216 215 209 203 200 198 195 193 193 192 191 189 187 187 187 185 187 188 189 195 198 198 196 198 205 213 215 207 209 223 217 200 190 185 170 173 170 107 13 108 82 42 25 10 360 6 12 341 349 343 50 55 79 112 174 186 198 192 181 196 175 184 201 201 182 156 166 186 174 67 56 56 87 357 326 343 353 197 213 157 160 163
232 231 220 220 218 214 216 215 212 207 200 198 197 194 194 193 191 189 187 186 186 185 185 185 185 189 194 196 195 197 201 213 218 212 216 222 216 202 194 192 183 173 158 81 46 82 77 51 32 27 17 1 346 342 350 332 45 90 120 138 214 199 210 200 176 191 184 177 183 189 192 176 174 167 150 138 169 181 138 302 337 5 12 127 155 150 155 160
231 232 226 222 219 217 217 215 211 208 203 197 198 196 194 193 191 189 188 186 185 184 184 184 184 184 185 185 183 189 192 204 228 226 220 213 207 200 192 193 186 173 143 89 60 76 97 98 63 57 44 360 350 340 351 336 321 142 133 222 240 210 232 238 190 198 206 165 166 187 191 188 182 155 150 155 169 208 193 202 182 194 193 142 151 149 152 159
229 232 231 224 217 218 219 217 210 207 206 198 195 196 193 192 190 189 188 186 184 183 183 183 183 182 180 177 172 172 168 205 243 218 217 207 201 199 195 198 189 186 161 107 81 80 95 94 71 65 57 6 323 328 325 303 317 178 155 204 236 187 231 249 208 210 210 169 166 172 136 169 193 147 145 141 146 240 235 216 196 189 176 158 159 153 155 161
224 229 232 225 215 218 218 216 213 207 206 201 195 194 192 191 191 189 188 186 184 182 181 181 181 179 175 173 171 162 146 180 216 203 215 208 200 201 198 201 198 196 177 125 100 84 81 80 75 65 56 31 324 338 293 306 45 228 233 214 209 154 229 256 213 210 192 149 142 154 157 172 168 131 161 154 168 226 226 219 210 185 165 162 162 158 160 165
219 225 229 227 218 217 216 215 215 208 205 201 195 194 192 192 191 188 187 185 183 182 180 179 178 176 171 167 166 164 165 202 183 188 209 210 202 202 201 203 202 195 180 146 121 89 71 62 70 79 73 62 323 303 282 322 29 268 278 268 243 190 234 280 258 222 173 142 159 175 178 145 130 169 185 175 193 229 242 212 185 176 171 163 159 160 165 170
219 220 223 226 221 217 217 215 214 211 208 201 193 193 192 192 191 189 187 185 183 181 179 178 176 172 165 158 160 169 192 230 311 180 193 204 205 204 205 205 204 200 187 151 119 93 77 66 88 102 81 71 295 281 297 322 330 258 272 293 289 220 228 286 339 240 179 168 178 158 137 148 162 181 162 200 222 269 299 180 142 150 163 161 160 166 174 175
222 220 218 223 225 219 216 214 211 213 212 203 194 192 191 190 189 189 186 184 182 180 178 176 173 169 161 155 156 174 208 219 293 175 176 186 193 195 199 198 201 202 187 171 147 124 105 81 126 119 107 169 324 314 320 330 317 231 244 275 297 248 259 303 324 185 168 173 143 116 144 176 187 159 145 216 237 292 328 129 127 137 153 168 174 175 178 179
225 221 217 221 227 224 218 213 210 214 214 207 198 193 192 190 187 187 187 183 181 179 177 175 171 168 164 157 152 174 200 198 160 168 172 173 178 185 193 189 191 193 174 171 168 151 152 150 150 117 127 159 333 320 339 357 303 238 246 264 285 288 300 333 338 166 151 158 133 133 152 199 230 134 191 226 224 245 119 129 133 142 158 180 184 182 182 183
231 224 218 220 226 226 219 211 212 216 216 212 201 195 195 194 187 183 184 182 180 179 176 174 170 166 165 157 154 179 195 190 162 165 176 176 173 176 186 188 185 181 162 155 162 158 160 151 119 97 91 102 308 307 342 36 269 293 305 275 263 282 303 360 352 238 142 128 159 150 156 245 305 30 226 235 183 135 127 133 148 153 169 184 188 192 188 189
239 231 221 218 224 226 215 207 213 217 218 214 203 196 197 196 188 181 182 182 179 178 176 173 169 166 165 160 170 188 178 178 168 165 178 181 178 177 183 187 182 177 162 146 153 157 149 137 121 101 71 45 333 310 310 255 307 310 312 294 280 304 299 273 44 258 174 128 157 133 129 294 339 270 231 228 154 144 141 148 166 168 176 186 190 196 195 198
240 235 226 220 222 226 219 211 213 217 217 212 200 195 196 196 190 181 180 181 179 177 175 172 170 166 162 163 188 184 167 176 175 169 175 179 179 183 184 180 177 175 167 146 134 148 149 144 128 105 120 84 7 305 291 308 325 305 289 285 296 332 299 237 178 265 207 170 173 125 96 288 239 225 250 237 141 136 144 160 174 181 183 186 192 197 204 206
241 241 232 225 223 225 225 215 212 216 215 206 197 192 194 193 188 182 179 179 178 177 174 171 169 164 157 165 190 168 165 169 171 167 171 175 171 170 170 167 163 165 171 155 137 144 152 153 139 118 129 119 115 277 308 321 315 300 277 229 280 337 296 244 164 188 187 172 167 141 187 253 235 234 251 203 141 129 145 177 181 187 189 187 195 200 212 211
245 248 238 230 226 224 226 216 209 212 211 204 195 191 192 190 185 182 180 177 176 176 174 169 166 162 158 155 144 161 165 163 166 164 167 171 157 144 151 155 150 145 157 153 144 145 151 153 137 109 97 124 134 315 323 322 298 295 274 220 196 178 269 281 151 141 171 194 102 134 211 256 248 239 232 190 162 149 163 189 189 192 195 192 200 204 215 216
249 252 246 237 230 226 225 217 211 211 210 204 194 189 189 189 186 182 180 177 176 174 170 166 164 158 149 164 146 154 157 158 163 163 168 170 149 134 142 138 126 123 131 146 149 147 147 142 124 104 112 122 64 349 323 315 304 270 239 267 342 162 265 303 279 163 172 270 78 135 211 268 261 249 239 197 174 168 176 189 194 197 199 198 206 208 217 224
250 252 250 243 235 230 225 219 216 214 211 205 196 190 187 188 187 183 176 173 175 172 164 164 166 158 142 159 153 151 150 155 161 159 165 171 159 144 136 122 107 110 114 128 140 140 139 130 104 108 131 122 85 5 307 304 303 282 205 244 226 161 253 306 283 210 170 114 94 176 215 256 268 279 280 194 176 179 183 192 198 202 206 204 208 213 218 227
247 249 249 245 241 235 228 223 219 216 212 204 195 189 186 186 185 181 176 170 170 168 162 161 159 150 126 128 151 160 156 152 156 154 158 170 164 148 136 115 100 107 103 106 124 125 118 106 111 111 82 108 111 123 268 265 259 300 310 235 239 183 200 251 281 270 150 140 208 213 232 245 267 307 315 212 184 180 187 200 204 204 210 207 210 218 219 223
244 246 246 244 243 240 234 225 220 217 209 199 192 188 186 186 182 175 167 159 156 157 156 153 148 144 206 179 163 159 154 149 151 151 149 156 157 148 139 126 119 112 102 94 114 115 54 28 112 118 115 144 161 192 217 228 210 210 211 218 257 237 217 217 239 237 158 171 213 196 233 255 264 293 298 235 198 189 198 204 205 208 214 212 212 218 221 224
245 247 244 244 242 242 237 223 220 212 200 192 189 185 179 179 177 168 156 147 146 150 150 158 161 156 157 171 159 141 150 150 146 142 139 142 145 139 127 126 127 118 125 139 141 151 143 99 99 162 184 191 194 202 210 229 229 212 208 195 197 211 238 226 232 259 175 167 220 202 217 244 249 267 262 217 193 209 222 218 216 219 219 222 220 222 224 223
247 247 243 245 241 242 236 221 221 205 191 186 182 177 171 170 167 162 156 150 153 338 147 163 168 110 98 141 138 132 145 147 140 140 143 144 138 123 110 120 117 105 151 161 149 160 162 151 195 204 197 191 188 197 214 229 248 256 246 211 206 201 230 232 233 291 255 164 225 215 221 248 250 257 252 200 172 222 236 226 225 226 218 221 220 224 225 224
245 247 246 245 238 240 235 220 219 204 190 182 177 174 168 171 165 165 157 129 53 15 137 145 118 89 118 139 140 134 135 133 127 142 148 147 135 125 129 142 132 137 148 133 132 129 163 190 214 207 181 173 181 194 222 222 233 248 250 235 230 210 223 240 218 301 333 183 236 227 230 259 257 255 253 164 179 221 227 217 221 222 219 223 220 225 227 229
244 247 246 244 237 238 234 220 218 206 189 179 178 186 190 187 188 164 151 105 15 60 128 128 89 93 117 133 144 139 127 119 137 153 156 154 145 138 157 157 151 154 129 118 119 126 191 217 215 180 140 152 185 210 226 227 226 230 239 227 232 222 233 284 288 326 4 192 258 251 212 253 260 257 236 191 207 230 223 215 224 218 215 222 218 224 226 229
242 245 243 245 237 233 232 221 219 207 185 175 179 193 196 195 172 154 136 86 73 53 87 107 91 113 121 137 153 146 139 149 157 172 172 165 162 152 154 158 153 143 149 159 160 160 195 229 169 127 137 170 196 227 229 233 233 228 218 204 237 223 183 237 258 313 21 123 236 154 201 266 276 286 269 225 217 240 240 227 237 229 218 223 222 225 222 219
240 241 241 245 235 228 229 218 216 205 181 176 182 190 194 175 156 146 121 72 100 42 53 93 80 116 129 132 155 155 151 152 155 169 178 170 149 144 152 150 143 146 174 178 173 175 184 109 115 134 168 191 208 234 234 234 240 239 215 203 231 211 199 216 186 133 25 354 85 100 16 298 267 266 268 244 201 234 251 238 248 247 232 238 250 244 226 217
239 240 240 242 234 225 222 213 211 199 180 179 183 187 187 167 156 142 116 78 96 27 243 122 85 141 142 112 118 145 126 106 140 159 173 173 149 142 151 146 148 163 175 168 167 187 203 85 133 156 179 186 205 235 233 220 234 256 229 209 212 205 205 189 137 115 101 258 269 106 225 282 282 254 249 251 212 236 242 231 242 247 236 237 247 240 226 224
240 241 239 239 233 218 213 212 206 193 177 181 184 185 177 164 161 147 115 64 106 153 188 152 140 161 153 126 120 122 108 67 81 141 161 172 154 138 141 146 149 163 162 151 145 184 217 153 145 166 186 182 199 240 234 204 214 254 235 206 206 197 179 160 153 141 163 227 276 100 182 253 305 272 244 259 275 255 256 248 247 247 240 232 233 233 225 225
241 242 237 237 228 208 203 206 194 185 171 183 184 179 170 166 173 164 116 120 168 156 143 138 187 155 157 170 151 143 146 137 115 142 165 162 146 133 138 154 139 142 149 142 184 181 165 172 159 168 184 192 205 228 225 196 202 246 240 192 194 182 173 175 168 167 194 220 308 19 152 225 275 259 258 320 293 270 269 257 254 248 239 235 231 230 225 222
244 243 238 235 222 204 204 194 175 178 182 177 174 171 171 174 182 103 111 166 164 129 125 118 110 136 144 149 138 137 154 139 131 175 193 155 145 139 151 171 149 145 156 161 185 160 158 176 177 169 180 201 210 221 215 188 205 245 220 170 184 177 173 179 173 170 146 186 255 271 158 200 260 269 300 357 259 271 266 248 246 241 236 234 232 231 227 225
245 244 238 229 217 206 206 194 172 178 178 166 163 166 169 170 160 79 136 188 141 121 134 131 130 131 128 123 115 97 142 140 132 160 170 159 149 121 150 161 132 140 163 181 186 150 176 182 167 171 194 203 207 227 211 190 212 226 148 104 66 68 93 119 161 141 72 219 227 220 184 203 261 270 292 344 242 254 255 249 242 240 238 231 228 231 228 226
245 243 232 219 209 200 199 199 184 173 162 156 155 157 157 149 127 146 192 172 127 139 138 145 161 150 145 140 123 154 144 135 114 134 144 160 123 101 114 126 117 133 161 216 245 201 135 106 149 181 206 194 202 235 206 197 201 144 112 77 50 35 50 58 71 94 108 241 238 216 192 201 255 264 235 212 217 219 227 250 255 252 249 232 226 229 223 220
243 237 220 208 200 191 190 197 174 160 152 151 149 148 145 125 128 169 178 152 120 135 136 138 152 148 154 152 143 160 147 126 136 145 156 166 131 133 130 130 128 125 154 196 231 218 118 107 184 195 167 141 175 236 214 199 194 149 123 108 80 0 26 42 8 75 193 237 257 248 189 180 232 255 231 230 248 225 213 237 252 259 260 244 234 232 223 219
238 225 207 200 194 186 187 176 159 154 151 148 145 145 145 130 202 175 149 153 147 162 157 149 154 157 160 154 137 152 144 134 154 158 162 165 161 165 163 166 159 143 175 191 195 209 182 211 224 178 173 160 159 206 319 20 223 197 161 144 159 257 90 181 241 193 220 242 278 288 181 193 237 249 253 261 265 245 219 224 243 259 266 256 239 229 223 215
226 208 197 194 186 182 188 172 155 152 150 147 142 145 157 158 188 147 142 166 173 169 163 153 157 158 156 150 141 147 132 142 163 162 162 161 160 180 191 186 170 159 175 169 160 169 207 291 250 186 197 181 175 191 191 191 200 195 185 173 180 174 159 203 220 226 247 252 300 301 217 246 268 265 250 248 253 245 222 230 242 249 259 264 251 226 216 215
207 193 188 186 179 180 180 163 153 152 149 146 143 147 169 175 163 132 153 174 149 145 150 145 147 150 151 146 151 156 127 146 168 158 157 159 159 189 213 200 185 165 106 146 165 175 174 231 216 188 181 168 187 207 182 149 180 203 209 165 175 175 174 203 205 196 219 240 306 298 210 196 200 252 244 238 266 279 238 247 249 245 258 266 254 215 200 213
190 183 179 176 174 176 169 157 154 154 149 145 151 160 177 173 134 152 162 152 132 128 126 132 139 145 148 126 145 180 100 138 172 157 160 172 176 186 193 196 186 163 134 162 179 179 187 228 215 164 147 151 174 209 123 123 176 217 170 141 203 195 153 152 182 179 171 153 283 236 227 215 206 269 280 272 297 290 263 278 259 249 269 253 225 215 198 207
175 173 172 170 168 167 162 156 155 155 151 147 158 172 187 169 160 174 161 151 150 140 131 134 143 148 145 119 158 201 13 111 157 158 172 184 187 190 189 189 182 172 164 161 152 170 186 236 355 91 70 169 173 167 156 175 189 175 161 197 229 171 118 118 198 98 91 173 240 196 239 296 306 284 307 346 314 290 278 285 262 254 276 241 224 220 205 205
164 161 161 165 165 163 160 157 156 155 152 152 166 179 186 175 170 162 151 146 146 143 141 144 160 161 155 153 172 186 154 125 154 167 174 184 198 201 198 196 181 180 178 157 146 200 159 127 316 151 156 208 167 130 147 226 158 137 194 205 196 114 108 110 170 5 50 207 263 285 216 276 246 246 324 350 297 276 263 258 269 274 256 234 232 220 214 216
153 148 147 161 162 161 160 159 158 155 148 159 173 176 158 172 151 136 140 138 139 147 151 152 164 168 165 163 171 178 163 151 169 176 166 181 213 201 195 201 183 178 179 155 149 216 153 119 319 198 165 176 97 113 174 248 187 181 220 201 140 175 209 140 162 189 175 220 283 317 257 254 199 214 294 271 234 249 250 238 254 257 234 226 231 220 222 224
145 142 144 163 161 161 160 159 157 154 158 168 176 178 163 172 154 144 147 146 147 154 160 163 163 167 174 169 165 170 167 163 168 169 170 184 211 197 188 192 182 174 173 159 159 197 164 139 303 288 209 168 90 147 194 207 205 196 227 226 161 175 190 187 170 165 179 212 254 300 298 265 227 217 219 230 234 234 231 219 228 235 228 222 219 212 214 212
145 138 147 161 160 160 158 156 154 163 170 172 175 180 182 167 151 156 155 152 154 158 167 172 167 161 168 166 162 167 168 165 167 170 181 179 182 200 189 186 180 170 167 163 167 178 162 146 176 292 313 189 177 200 192 183 179 174 182 197 204 139 144 183 171 118 139 177 194 213 280 262 248 215 199 227 242 227 211 216 227 234 230 223 217 210 210 205
148 130 152 161 159 157 153 151 158 168 169 169 166 166 171 150 132 153 159 155 155 141 134 164 171 164 159 157 164 171 163 160 170 174 175 175 180 203 192 181 170 158 159 168 177 179 168 154 156 164 200 188 199 248 182 173 165 170 198 202 190 152 115 170 236 219 109 151 170 166 247 267 257 212 206 226 240 216 204 218 234 241 232 224 219 211 208 203
150 130 153 160 158 153 147 140 161 158 163 164 155 142 149 142 141 156 163 160 159 130 94 145 165 158 158 162 164 167 164 161 175 180 181 187 189 192 181 168 159 159 164 166 173 171 135 116 121 153 208 205 229 218 159 156 146 166 220 215 183 170 135 166 219 228 133 178 132 128 235 271 264 227 225 248 277 283 242 234 246 250 234 226 221 208 203 205
147 126 144 158 158 153 141 144 158 142 151 143 111 70 135 133 147 156 162 166 170 154 135 148 160 157 171 170 157 160 164 161 177 183 173 177 192 193 170 157 151 161 169 160 164 165 126 115 116 85 295 307 317 342 97 111 129 213 236 195 166 198 150 157 193 182 172 188 140 166 249 267 275 270 252 264 282 283 267 246 243 254 251 228 219 206 195 197
138 110 135 162 165 161 150 161 161 141 142 134 111 145 99 108 152 161 169 174 174 158 154 159 169 171 170 162 159 166 167 158 183 190 169 156 187 186 163 158 156 166 180 180 173 173 167 154 136 120 74 6 333 300 255 220 197 200 235 216 159 124 101 110 126 115 196 221 175 191 241 255 270 307 316 286 291 286 269 245 230 245 249 226 214 202 192 188
137 110 123 168 177 175 163 163 160 151 150 152 159 169 106 105 170 172 169 167 147 138 152 159 162 157 157 158 160 170 172 158 171 181 151 148 173 182 166 167 169 177 185 171 159 160 176 172 151 154 173 190 197 209 215 205 194 184 118 311 211 161 141 166 141 129 221 241 165 180 229 258 280 308 313 303 306 291 279 273 248 243 242 225 207 196 191 188
140 133 140 159 183 184 139 116 157 154 154 157 162 163 137 141 177 179 163 161 149 118 118 120 128 117 147 160 153 169 180 152 126 163 161 159 163 231 186 176 177 179 164 149 148 142 143 172 181 187 197 197 188 181 145 128 140 207 204 183 212 207 178 159 123 170 198 183 194 214 205 229 270 277 280 291 292 275 279 291 283 266 258 240 212 194 191 193
141 148 157 153 152 161 115 95 153 154 157 161 158 157 159 153 156 173 181 190 185 140 100 97 145 142 161 164 156 173 177 105 99 162 167 165 145 75 154 172 179 168 143 146 157 139 130 199 198 197 207 196 162 148 144 140 170 199 195 200 206 196 178 176 209 220 176 144 244 242 182 200 242 245 253 270 262 255 273 279 278 270 243 214 178 167 183 194
142 143 161 153 144 157 138 140 156 155 157 162 144 132 154 156 161 173 189 199 174 160 130 134 171 170 170 169 163 167 166 134 145 166 162 160 142 114 125 165 193 167 144 157 177 149 160 210 197 188 201 191 171 172 162 163 186 193 193 205 208 196 189 196 222 224 186 195 242 232 188 209 231 234 247 255 239 241 276 278 264 224 182 160 152 170 192 200
129 117 138 96 133 162 156 151 155 155 160 164 145 145 161 167 173 174 152 128 167 181 164 165 181 178 172 172 164 160 169 167 173 179 172 166 161 150 149 165 213 190 159 165 187 173 177 197 176 165 179 184 187 193 180 181 191 192 197 204 205 206 206 208 223 225 213 223 241 232 209 228 233 227 240 245 224 238 280 293 235 176 169 164 174 195 206 209
143 140 144 87 98 151 147 147 154 157 165 169 163 167 170 173 176 169 126 156 173 186 180 174 180 178 172 173 168 173 184 180 177 180 172 165 166 166 170 172 170 179 168 162 173 200 185 184 152 142 160 195 270 210 200 202 203 200 206 208 205 208 212 216 225 229 227 238 247 252 251 254 245 224 240 253 239 234 271 270 238 203 187 180 192 213 218 217
114 119 147 135 128 140 140 147 157 158 168 177 172 169 170 177 177 161 135 208 177 181 188 173 170 169 169 177 182 188 191 184 174 171 163 161 167 168 174 174 155 155 160 156 152 124 120 143 98 120 163 224 330 116 180 191 210 238 234 223 213 210 212 216 218 216 216 229 238 241 249 254 241 219 240 251 237 219 241 251 242 217 190 187 203 218 222 222
103 61 84 120 128 147 152 151 159 166 173 173 163 155 169 175 174 158 150 333 168 168 164 149 151 156 168 187 197 191 177 156 139 141 143 140 131 112 110 135 150 154 152 136 121 111 123 126 113 138 173 229 351 128 142 124 151 250 240 218 209 212 219 223 226 222 217 215 217 228 238 237 216 209 226 229 213 215 233 238 228 211 198 202 214 220 225 228